contact:dominique.lefevre@mio.osupytheas.fr, maurice.libes@osupytheas.fr, didier.mallarino@osupytheas.fr
Project:EMSO http://www.emso-fr.org/EMSO-France
Depth: 2436.0 m
Title:EMSO Ligure Ouest : Data MII capteur AQUADOPP
Date,Latitude,Longitude,X_East,Y_North,Z_Up,Amplitude_X,Amplitude_Y,Amplitude_Z,Batterie,SoundSpeed,Heading,Pitch,Roll,Pressure,TIS,Speed,Direction
, degrees North, degrees East, m.s-1, m.s-1,m.s-1, 1, 1, 1, Volt, m.s-1, degree, degree, degree, dbar, degree_C, m.s-1, degree
2021-11-09T00:04:03,42.805,6.029,0.031,-0.03,-0.021,102.0,102.0,100.0,13.4,1505.2,326.9,-0.7,1.8,2470.673,13.28,0.043,134.1
2021-11-09T00:07:03,42.805,6.029,0.023,-0.051,-0.067,101.0,102.0,101.0,13.4,1505.2,327.3,-0.8,1.8,2470.684,13.28,0.055,155.7
2021-11-09T00:10:03,42.805,6.029,-0.001,-0.02,-0.013,102.0,101.0,101.0,13.4,1505.2,325.6,-0.7,1.8,2470.657,13.28,0.02,182.9
2021-11-09T00:13:03,42.805,6.029,0.018,-0.006,-0.001,102.0,102.0,101.0,13.4,1505.2,326.5,-0.8,1.8,2470.661,13.28,0.018,108.4
2021-11-09T00:16:03,42.805,6.029,0.027,-0.017,-0.024,102.0,102.0,100.0,13.4,1505.2,325.9,-0.8,1.8,2470.699,13.28,0.031,122.2
2021-11-09T00:19:03,42.805,6.029,0.031,-0.02,-0.003,102.0,103.0,101.0,13.4,1505.2,328.6,-0.7,1.8,2470.661,13.28,0.036,122.8
2021-11-09T00:22:03,42.805,6.029,0.029,-0.02,-0.005,103.0,103.0,101.0,13.4,1505.2,329.5,-0.7,1.8,2470.646,13.28,0.035,124.6
2021-11-09T00:25:03,42.805,6.029,0.043,-0.005,-0.026,103.0,102.0,99.0,13.4,1505.2,328.3,-0.8,1.8,2470.636,13.28,0.043,96.6
2021-11-09T00:28:03,42.805,6.029,0.016,-0.024,-0.002,102.0,101.0,101.0,13.4,1505.2,326.7,-0.8,1.8,2470.621,13.28,0.028,146.3
2021-11-09T00:31:03,42.805,6.029,0.021,-0.009,0.003,101.0,101.0,101.0,13.4,1505.2,327.2,-0.8,1.9,2470.664,13.28,0.022,113.2
2021-11-09T00:34:03,42.805,6.029,0.016,-0.003,-0.019,102.0,100.0,101.0,13.4,1505.2,325.5,-0.8,1.8,2470.655,13.28,0.016,100.6
2021-11-09T00:37:03,42.805,6.029,0.013,0.001,0.001,102.0,102.0,101.0,13.4,1505.2,331.3,-0.7,1.8,2470.639,13.28,0.013,85.6
2021-11-09T00:40:03,42.805,6.029,0.012,-0.019,-0.024,102.0,102.0,101.0,13.4,1505.2,327.2,-0.8,1.8,2470.625,13.28,0.022,147.7
2021-11-09T00:43:03,42.805,6.029,0.012,-0.045,-0.016,102.0,101.0,100.0,13.4,1505.2,327.3,-0.8,1.8,2470.68,13.28,0.046,165.1
2021-11-09T00:46:03,42.805,6.029,0.029,-0.029,-0.004,102.0,102.0,101.0,13.4,1505.2,325.7,-0.8,1.8,2470.664,13.28,0.041,135.0
2021-11-09T00:49:03,42.805,6.029,0.02,-0.005,0.004,102.0,101.0,101.0,13.4,1505.2,327.3,-0.8,1.8,2470.611,13.28,0.02,104.0
2021-11-09T00:52:03,42.805,6.029,0.031,-0.013,-0.014,101.0,101.0,102.0,13.4,1505.2,331.3,-0.8,1.8,2470.669,13.28,0.033,112.7
2021-11-09T00:55:03,42.805,6.029,0.042,-0.03,-0.025,101.0,102.0,102.0,13.4,1505.2,330.8,-0.7,1.8,2470.64,13.28,0.051,125.5
2021-11-09T00:58:03,42.805,6.029,0.005,0.007,-0.011,103.0,100.0,101.0,13.4,1505.2,330.1,-0.8,1.8,2470.669,13.28,0.008,35.5
2021-11-09T01:04:03,42.805,6.029,0.048,-0.041,-0.018,104.0,104.0,102.0,13.4,1505.2,326.4,-0.8,1.8,2470.72,13.28,0.063,130.5
2021-11-09T01:07:03,42.805,6.029,0.024,-0.027,-0.02,102.0,102.0,102.0,13.4,1505.2,328.0,-0.8,1.8,2470.654,13.28,0.036,138.4
2021-11-09T01:10:03,42.805,6.029,0.018,-0.019,-0.021,102.0,102.0,101.0,13.3,1505.2,327.4,-0.7,1.8,2470.663,13.28,0.026,136.5
2021-11-09T01:13:02,42.805,6.029,0.025,-0.009,-0.008,102.0,102.0,101.0,13.4,1505.2,328.7,-0.7,1.8,2470.646,13.28,0.026,109.8
2021-11-09T01:16:03,42.805,6.029,0.037,-0.023,-0.016,102.0,101.0,101.0,13.3,1505.2,328.6,-0.8,1.8,2470.642,13.28,0.043,121.9
2021-11-09T01:19:03,42.805,6.029,0.042,-0.025,-0.005,101.0,102.0,101.0,13.4,1505.2,329.0,-0.7,1.9,2470.634,13.28,0.048,120.8
2021-11-09T01:22:03,42.805,6.029,0.019,-0.023,-0.008,101.0,102.0,101.0,13.4,1505.2,330.6,-0.7,1.8,2470.668,13.28,0.029,140.4
2021-11-09T01:25:03,42.805,6.029,0.011,-0.006,-0.023,103.0,101.0,100.0,13.3,1505.2,326.5,-0.8,1.8,2470.656,13.28,0.012,118.6
2021-11-09T01:28:03,42.805,6.029,0.026,-0.015,-0.002,102.0,101.0,101.0,13.4,1505.2,325.8,-0.7,1.8,2470.665,13.28,0.03,120.0
2021-11-09T01:31:03,42.805,6.029,0.049,-0.023,0.034,101.0,103.0,100.0,13.4,1505.2,329.3,-0.7,1.8,2470.635,13.28,0.054,115.1
2021-11-09T01:34:03,42.805,6.029,0.0,-0.023,-0.025,102.0,101.0,101.0,13.4,1505.2,328.8,-0.7,1.8,2470.638,13.28,0.023,180.0
2021-11-09T01:37:03,42.805,6.029,0.015,-0.012,-0.035,102.0,100.0,101.0,13.4,1505.2,325.1,-0.8,1.8,2470.632,13.28,0.019,128.7
2021-11-09T01:40:03,42.805,6.029,0.0,-0.003,-0.026,101.0,102.0,101.0,13.3,1505.2,331.7,-0.7,1.8,2470.646,13.28,0.003,180.0
2021-11-09T01:43:03,42.805,6.029,0.039,-0.028,-0.04,101.0,102.0,101.0,13.4,1505.2,327.2,-0.8,1.8,2470.629,13.28,0.048,125.7
2021-11-09T01:46:03,42.805,6.029,0.011,-0.013,0.0,103.0,102.0,101.0,13.4,1505.2,329.2,-0.7,1.8,2470.647,13.28,0.017,139.8
2021-11-09T01:49:03,42.805,6.029,0.014,-0.015,0.006,102.0,101.0,100.0,13.3,1505.2,327.4,-0.8,1.8,2470.614,13.28,0.02,137.0
2021-11-09T01:52:03,42.805,6.029,0.036,-0.017,-0.026,101.0,103.0,101.0,13.4,1505.2,325.8,-0.8,1.8,2470.614,13.28,0.039,115.3
2021-11-09T01:55:03,42.805,6.029,0.018,-0.027,-0.017,103.0,101.0,101.0,13.4,1505.2,329.6,-0.7,1.8,2470.598,13.28,0.032,146.3
2021-11-09T01:58:03,42.805,6.029,0.042,-0.021,0.003,102.0,101.0,101.0,13.4,1505.2,329.4,-0.7,1.8,2470.609,13.28,0.046,116.6
2021-11-09T02:04:03,42.805,6.029,0.033,-0.02,-0.032,101.0,102.0,100.0,13.4,1505.2,330.3,-0.8,1.8,2470.651,13.28,0.038,121.2
2021-11-09T02:07:03,42.805,6.029,0.025,-0.013,-0.013,102.0,102.0,100.0,13.3,1505.2,327.2,-0.8,1.9,2470.635,13.28,0.028,117.5
2021-11-09T02:10:03,42.805,6.029,0.03,-0.032,-0.028,101.0,101.0,102.0,13.3,1505.2,329.5,-0.7,1.8,2470.635,13.28,0.043,136.9
2021-11-09T02:13:03,42.805,6.029,0.03,-0.024,-0.016,100.0,102.0,101.0,13.4,1505.2,325.5,-0.7,1.8,2470.638,13.28,0.038,128.7
2021-11-09T02:16:03,42.805,6.029,0.035,-0.007,0.005,101.0,101.0,101.0,13.3,1505.2,330.4,-0.8,1.8,2470.622,13.28,0.035,101.3
2021-11-09T02:19:03,42.805,6.029,0.049,-0.027,0.018,101.0,102.0,101.0,13.4,1505.2,328.6,-0.8,1.8,2470.66,13.28,0.055,118.9
2021-11-09T02:22:03,42.805,6.029,0.035,-0.009,0.007,102.0,102.0,101.0,13.4,1505.2,325.5,-0.8,1.8,2470.617,13.28,0.036,104.4
2021-11-09T02:25:03,42.805,6.029,0.026,-0.031,-0.02,102.0,102.0,100.0,13.3,1505.2,328.6,-0.8,1.8,2470.624,13.28,0.04,140.0
2021-11-09T02:28:03,42.805,6.029,0.019,-0.039,-0.02,102.0,101.0,101.0,13.3,1505.2,331.3,-0.8,1.8,2470.605,13.28,0.043,154.0
2021-11-09T02:31:03,42.805,6.029,0.026,-0.013,0.008,102.0,101.0,101.0,13.4,1505.2,325.9,-0.7,1.8,2470.607,13.28,0.029,116.6
2021-11-09T02:34:03,42.805,6.029,0.026,-0.019,-0.022,102.0,101.0,101.0,13.3,1505.2,329.7,-0.7,1.8,2470.62,13.28,0.032,126.2
2021-11-09T02:37:03,42.805,6.029,0.018,-0.017,0.012,103.0,103.0,100.0,13.4,1505.2,327.7,-0.8,1.9,2470.619,13.28,0.024,133.4
2021-11-09T02:40:03,42.805,6.029,0.016,-0.028,-0.033,102.0,101.0,100.0,13.4,1505.2,330.5,-0.8,1.8,2470.624,13.28,0.032,150.3
2021-11-09T02:43:03,42.805,6.029,0.01,0.008,0.031,103.0,102.0,100.0,13.3,1505.2,326.0,-0.8,1.8,2470.594,13.28,0.012,51.3
2021-11-09T02:46:03,42.805,6.029,0.035,-0.014,0.0,101.0,100.0,102.0,13.4,1505.2,327.6,-0.8,1.8,2470.594,13.28,0.037,111.8
2021-11-09T02:49:03,42.805,6.029,0.016,-0.017,-0.015,102.0,102.0,100.0,13.3,1505.2,327.9,-0.7,1.8,2470.604,13.28,0.023,136.7
2021-11-09T02:52:03,42.805,6.029,0.023,-0.012,-0.014,102.0,100.0,102.0,13.4,1505.2,328.9,-0.8,1.8,2470.582,13.28,0.025,117.6
2021-11-09T02:55:03,42.805,6.029,0.035,-0.024,0.013,101.0,101.0,101.0,13.3,1505.2,330.5,-0.8,1.8,2470.563,13.28,0.042,124.4
2021-11-09T02:58:03,42.805,6.029,0.033,-0.021,-0.011,101.0,101.0,100.0,13.3,1505.2,326.5,-0.8,1.8,2470.623,13.28,0.039,122.5
2021-11-09T03:04:03,42.805,6.029,0.046,-0.025,-0.013,102.0,100.0,101.0,13.3,1505.2,328.6,-0.8,1.8,2470.617,13.28,0.052,118.5
2021-11-09T03:07:03,42.805,6.029,0.022,-0.006,-0.007,102.0,102.0,100.0,13.4,1505.2,331.4,-0.7,1.8,2470.613,13.28,0.022,105.3
2021-11-09T03:10:03,42.805,6.029,0.021,-0.021,-0.04,104.0,100.0,101.0,13.4,1505.2,328.2,-0.8,1.8,2470.601,13.28,0.029,135.0
2021-11-09T03:13:03,42.805,6.029,0.024,-0.011,-0.015,101.0,102.0,100.0,13.4,1505.2,327.8,-0.7,1.8,2470.623,13.28,0.026,114.6
2021-11-09T03:16:03,42.805,6.029,0.009,0.001,-0.002,101.0,101.0,101.0,13.4,1505.2,330.5,-0.8,1.9,2470.594,13.28,0.009,83.7
2021-11-09T03:19:03,42.805,6.029,0.015,-0.011,0.01,100.0,102.0,102.0,13.4,1505.2,328.4,-0.8,1.8,2470.617,13.28,0.018,126.3
2021-11-09T03:22:03,42.805,6.029,0.008,0.006,0.036,102.0,101.0,100.0,13.3,1505.2,325.2,-0.8,1.8,2470.611,13.28,0.01,53.1
2021-11-09T03:25:03,42.805,6.029,0.04,-0.01,-0.021,102.0,102.0,99.0,13.3,1505.2,326.2,-0.7,1.8,2470.604,13.28,0.041,104.0
2021-11-09T03:28:03,42.805,6.029,0.026,-0.011,0.012,102.0,101.0,101.0,13.3,1505.2,327.5,-0.8,1.8,2470.595,13.28,0.028,112.9
2021-11-09T03:31:03,42.805,6.029,0.043,-0.017,-0.02,103.0,101.0,101.0,13.3,1505.2,326.0,-0.7,1.8,2470.577,13.28,0.046,111.6
2021-11-09T03:34:03,42.805,6.029,0.034,-0.019,-0.016,101.0,100.0,101.0,13.4,1505.2,331.0,-0.7,1.8,2470.568,13.28,0.038,119.2
2021-11-09T03:37:03,42.805,6.029,0.045,-0.022,-0.02,102.0,101.0,100.0,13.3,1505.2,327.9,-0.7,1.9,2470.584,13.28,0.05,116.1
2021-11-09T03:40:03,42.805,6.029,0.022,0.0,-0.027,102.0,100.0,100.0,13.4,1505.2,326.0,-0.8,1.8,2470.628,13.28,0.022,90.0
2021-11-09T03:43:03,42.805,6.029,0.017,-0.038,-0.017,102.0,101.0,100.0,13.4,1505.2,329.6,-0.7,1.8,2470.605,13.28,0.041,155.9
2021-11-09T03:46:03,42.805,6.029,0.012,-0.005,-0.009,101.0,102.0,101.0,13.4,1505.2,327.5,-0.8,1.8,2470.59,13.28,0.013,112.6
2021-11-09T03:49:03,42.805,6.029,0.029,-0.008,-0.011,102.0,101.0,101.0,13.4,1505.2,325.3,-0.7,1.8,2470.557,13.28,0.03,105.4
2021-11-09T03:52:03,42.805,6.029,0.047,-0.031,-0.001,102.0,102.0,101.0,13.3,1505.2,329.4,-0.7,1.8,2470.571,13.28,0.056,123.4
2021-11-09T03:55:03,42.805,6.029,0.02,-0.001,-0.01,102.0,101.0,101.0,13.4,1505.2,332.0,-0.8,1.8,2470.588,13.28,0.02,92.9
2021-11-09T03:58:03,42.805,6.029,0.018,0.0,-0.005,100.0,101.0,101.0,13.4,1505.2,325.5,-0.8,1.8,2470.561,13.28,0.018,90.0
2021-11-09T04:04:03,42.805,6.029,0.025,-0.016,-0.016,102.0,101.0,101.0,13.4,1505.2,327.2,-0.8,1.8,2470.598,13.28,0.029,122.6
2021-11-09T04:07:03,42.805,6.029,0.007,-0.011,0.0,101.0,102.0,101.0,13.3,1505.2,327.5,-0.8,1.8,2470.606,13.28,0.013,147.5
2021-11-09T04:10:03,42.805,6.029,0.029,-0.014,-0.001,102.0,101.0,101.0,13.3,1505.2,328.5,-0.7,1.8,2470.636,13.28,0.032,115.8
2021-11-09T04:13:03,42.805,6.029,0.006,-0.028,-0.02,102.0,102.0,101.0,13.4,1505.2,327.2,-0.8,1.8,2470.631,13.28,0.028,167.9
2021-11-09T04:16:03,42.805,6.029,0.025,-0.031,-0.022,101.0,101.0,101.0,13.4,1505.2,327.2,-0.8,1.8,2470.582,13.28,0.039,141.1
2021-11-09T04:19:03,42.805,6.029,0.004,-0.011,-0.009,102.0,100.0,99.0,13.4,1505.2,325.1,-0.7,1.8,2470.596,13.28,0.011,160.0
2021-11-09T04:22:03,42.805,6.029,0.018,-0.017,-0.017,102.0,101.0,101.0,13.3,1505.2,330.5,-0.8,1.8,2470.579,13.28,0.024,133.4
2021-11-09T04:25:03,42.805,6.029,0.035,-0.018,-0.005,102.0,102.0,101.0,13.4,1505.2,330.5,-0.8,1.8,2470.61,13.28,0.039,117.2
2021-11-09T04:28:03,42.805,6.029,0.016,-0.038,-0.038,101.0,101.0,101.0,13.4,1505.2,325.2,-0.7,1.8,2470.564,13.28,0.041,157.2
2021-11-09T04:31:03,42.805,6.029,0.031,-0.033,-0.046,101.0,101.0,101.0,13.4,1505.2,329.8,-0.7,1.8,2470.596,13.28,0.045,136.8
2021-11-09T04:34:03,42.805,6.029,0.008,-0.034,-0.033,102.0,101.0,102.0,13.4,1505.2,330.0,-0.7,1.8,2470.574,13.28,0.034,166.8
2021-11-09T04:37:03,42.805,6.029,0.017,-0.013,0.002,100.0,101.0,101.0,13.3,1505.2,325.1,-0.8,1.8,2470.617,13.28,0.021,127.4
2021-11-09T04:40:03,42.805,6.029,0.029,-0.033,-0.021,101.0,100.0,101.0,13.4,1505.2,327.6,-0.7,1.8,2470.534,13.28,0.043,138.7
2021-11-09T04:43:03,42.805,6.029,0.005,-0.013,-0.025,102.0,102.0,100.0,13.4,1505.2,325.1,-0.7,1.8,2470.576,13.28,0.013,159.0
2021-11-09T04:46:03,42.805,6.029,0.03,-0.005,-0.012,101.0,103.0,100.0,13.4,1505.2,327.7,-0.8,1.8,2470.566,13.28,0.03,99.5
2021-11-09T04:49:03,42.805,6.029,0.026,-0.011,-0.028,101.0,102.0,100.0,13.4,1505.2,330.5,-0.8,1.8,2470.615,13.28,0.028,112.9
2021-11-09T04:52:03,42.805,6.029,0.006,-0.024,-0.052,101.0,103.0,100.0,13.4,1505.2,328.3,-0.7,1.8,2470.569,13.28,0.024,166.0
2021-11-09T04:55:03,42.805,6.029,0.01,-0.021,-0.014,100.0,101.0,100.0,13.4,1505.2,331.4,-0.8,1.8,2470.596,13.28,0.023,154.5
2021-11-09T04:58:03,42.805,6.029,0.028,-0.027,-0.015,100.0,101.0,101.0,13.4,1505.2,327.9,-0.7,1.8,2470.579,13.28,0.038,134.0
2021-11-09T05:04:03,42.805,6.029,0.016,-0.018,0.011,102.0,101.0,101.0,13.4,1505.2,327.0,-0.8,1.8,2470.612,13.28,0.024,138.4
2021-11-09T05:07:03,42.805,6.029,0.026,-0.008,-0.015,102.0,101.0,101.0,13.3,1505.2,329.1,-0.7,1.8,2470.671,13.28,0.027,107.1
2021-11-09T05:10:03,42.805,6.029,0.009,-0.036,-0.049,100.0,102.0,100.0,13.4,1505.2,328.0,-0.7,1.8,2470.652,13.28,0.037,166.0
2021-11-09T05:13:03,42.805,6.029,0.034,-0.04,-0.019,103.0,102.0,99.0,13.4,1505.2,329.6,-0.7,1.8,2470.595,13.28,0.052,139.6
2021-11-09T05:16:03,42.805,6.029,0.015,-0.048,-0.052,101.0,102.0,101.0,13.4,1505.2,330.4,-0.7,1.8,2470.604,13.28,0.05,162.6
2021-11-09T05:19:03,42.805,6.029,0.013,-0.024,-0.021,102.0,99.0,101.0,13.4,1505.2,331.1,-0.7,1.9,2470.572,13.28,0.027,151.6
2021-11-09T05:22:03,42.805,6.029,0.045,-0.02,0.006,101.0,101.0,100.0,13.4,1505.2,331.0,-0.8,1.8,2470.598,13.28,0.049,114.0
2021-11-09T05:25:03,42.805,6.029,0.016,-0.033,-0.044,101.0,100.0,100.0,13.4,1505.2,329.1,-0.8,1.8,2470.629,13.28,0.036,154.1
2021-11-09T05:28:03,42.805,6.029,0.014,-0.016,-0.028,101.0,101.0,100.0,13.3,1505.2,329.2,-0.7,1.8,2470.63,13.28,0.021,138.8
2021-11-09T05:31:03,42.805,6.029,0.01,-0.02,-0.012,102.0,100.0,100.0,13.3,1505.2,331.3,-0.7,1.8,2470.583,13.28,0.022,153.4
2021-11-09T05:34:03,42.805,6.029,0.026,-0.033,-0.021,100.0,101.0,100.0,13.4,1505.2,327.4,-0.7,1.8,2470.59,13.28,0.042,141.8
2021-11-09T05:37:03,42.805,6.029,0.017,-0.008,-0.015,101.0,100.0,101.0,13.4,1505.2,327.8,-0.7,1.8,2470.604,13.28,0.018,115.2
2021-11-09T05:40:03,42.805,6.029,0.004,-0.013,-0.031,101.0,101.0,100.0,13.3,1505.2,325.8,-0.7,1.8,2470.61,13.28,0.013,162.9
2021-11-09T05:43:03,42.805,6.029,0.008,-0.006,-0.031,101.0,101.0,101.0,13.4,1505.2,326.7,-0.8,1.8,2470.608,13.28,0.01,126.9
2021-11-09T05:46:03,42.805,6.029,0.028,-0.036,-0.04,102.0,101.0,100.0,13.4,1505.2,332.0,-0.8,1.8,2470.594,13.28,0.045,142.1
2021-11-09T05:49:03,42.805,6.029,0.033,-0.011,-0.025,101.0,100.0,101.0,13.4,1505.2,326.5,-0.7,1.8,2470.634,13.28,0.034,108.4
2021-11-09T05:52:03,42.805,6.029,0.039,-0.021,-0.025,101.0,102.0,100.0,13.4,1505.2,326.1,-0.7,1.9,2470.6,13.28,0.044,118.3
2021-11-09T05:55:03,42.805,6.029,0.015,-0.032,0.005,101.0,101.0,100.0,13.3,1505.2,331.3,-0.7,1.8,2470.629,13.28,0.035,154.9
2021-11-09T05:58:03,42.805,6.029,0.014,-0.009,-0.025,100.0,100.0,101.0,13.3,1505.2,329.2,-0.8,1.8,2470.576,13.28,0.016,122.7
2021-11-09T06:04:03,42.805,6.029,0.011,-0.025,-0.03,101.0,101.0,100.0,13.3,1505.2,329.4,-0.8,1.8,2470.668,13.28,0.027,156.3
2021-11-09T06:07:03,42.805,6.029,0.014,-0.017,-0.013,102.0,101.0,101.0,13.4,1505.2,328.1,-0.8,1.9,2470.656,13.28,0.022,140.5
2021-11-09T06:10:03,42.805,6.029,0.001,-0.013,-0.009,101.0,102.0,101.0,13.4,1505.2,328.3,-0.7,1.8,2470.629,13.28,0.013,175.6
2021-11-09T06:13:03,42.805,6.029,0.018,-0.027,-0.028,101.0,101.0,100.0,13.3,1505.2,326.4,-0.7,1.8,2470.669,13.28,0.032,146.3
2021-11-09T06:16:03,42.805,6.029,0.006,0.001,-0.013,101.0,101.0,100.0,13.4,1505.2,325.7,-0.8,1.8,2470.664,13.28,0.006,80.5
2021-11-09T06:19:03,42.805,6.029,0.021,-0.033,-0.017,101.0,101.0,100.0,13.4,1505.2,326.1,-0.8,1.8,2470.639,13.28,0.039,147.5
2021-11-09T06:22:03,42.805,6.029,0.007,-0.041,-0.009,102.0,101.0,100.0,13.4,1505.2,328.9,-0.8,1.8,2470.647,13.28,0.041,170.3
2021-11-09T06:25:03,42.805,6.029,0.008,-0.021,-0.02,100.0,100.0,101.0,13.4,1505.2,327.4,-0.8,1.8,2470.631,13.28,0.022,159.1
2021-11-09T06:28:03,42.805,6.029,0.006,0.0,0.006,101.0,101.0,101.0,13.4,1505.2,329.6,-0.7,1.9,2470.674,13.28,0.006,90.0
2021-11-09T06:31:03,42.805,6.029,0.03,-0.007,0.019,101.0,101.0,100.0,13.4,1505.2,329.4,-0.8,1.8,2470.65,13.28,0.03,103.1
2021-11-09T06:34:03,42.805,6.029,0.02,-0.001,0.017,101.0,101.0,100.0,13.4,1505.2,329.7,-0.8,1.8,2470.659,13.28,0.02,92.9
2021-11-09T06:37:03,42.805,6.029,0.0,-0.013,-0.022,101.0,101.0,101.0,13.4,1505.2,329.1,-0.8,1.8,2470.643,13.28,0.013,180.0
2021-11-09T06:40:03,42.805,6.029,-0.006,-0.02,-0.029,100.0,100.0,102.0,13.4,1505.2,328.1,-0.7,1.9,2470.638,13.28,0.02,196.7
2021-11-09T06:43:03,42.805,6.029,0.039,-0.039,0.003,101.0,100.0,101.0,13.4,1505.2,325.2,-0.7,1.8,2470.648,13.28,0.055,135.0
2021-11-09T06:46:03,42.805,6.029,-0.004,-0.022,-0.002,100.0,100.0,100.0,13.4,1505.2,331.6,-0.8,1.9,2470.648,13.28,0.022,190.3
2021-11-09T06:49:03,42.805,6.029,0.016,-0.013,-0.011,100.0,100.0,100.0,13.4,1505.2,329.9,-0.7,1.8,2470.679,13.28,0.02,129.1
2021-11-09T06:52:03,42.805,6.029,0.008,0.005,-0.018,101.0,99.0,100.0,13.4,1505.2,328.3,-0.8,1.8,2470.668,13.28,0.009,58.0
2021-11-09T06:55:03,42.805,6.029,0.0,-0.01,-0.008,102.0,101.0,100.0,13.4,1505.2,330.9,-0.8,1.9,2470.679,13.28,0.01,180.0
2021-11-09T06:58:03,42.805,6.029,0.026,-0.017,-0.017,101.0,101.0,99.0,13.4,1505.2,329.7,-0.7,1.8,2470.68,13.28,0.031,123.2
2021-11-09T07:04:03,42.805,6.029,0.01,-0.013,-0.005,99.0,101.0,101.0,13.3,1505.2,325.9,-0.8,1.8,2470.686,13.28,0.016,142.4
2021-11-09T07:07:03,42.805,6.029,0.001,-0.009,-0.024,100.0,100.0,101.0,13.3,1505.2,329.8,-0.8,1.8,2470.682,13.28,0.009,173.7
2021-11-09T07:10:03,42.805,6.029,-0.014,0.006,-0.037,101.0,101.0,101.0,13.4,1505.2,328.9,-0.7,1.8,2470.711,13.28,0.015,293.2
2021-11-09T07:13:03,42.805,6.029,-0.001,-0.014,-0.001,101.0,102.0,100.0,13.3,1505.2,328.7,-0.8,1.9,2470.678,13.28,0.014,184.1
2021-11-09T07:16:03,42.805,6.029,0.016,0.006,0.02,102.0,101.0,101.0,13.4,1505.2,331.0,-0.8,1.8,2470.707,13.28,0.017,69.4
2021-11-09T07:19:03,42.805,6.029,0.021,-0.027,-0.032,101.0,102.0,100.0,13.4,1505.2,332.2,-0.8,1.8,2470.707,13.28,0.034,142.1
2021-11-09T07:22:03,42.805,6.029,0.003,-0.013,-0.018,100.0,102.0,101.0,13.4,1505.2,327.6,-0.8,1.9,2470.685,13.28,0.013,167.0
2021-11-09T07:25:03,42.805,6.029,0.01,-0.014,-0.04,101.0,100.0,100.0,13.4,1505.2,331.2,-0.8,1.8,2470.712,13.28,0.017,144.5
2021-11-09T07:28:03,42.805,6.029,0.004,-0.03,-0.041,102.0,100.0,100.0,13.4,1505.2,328.2,-0.8,1.8,2470.717,13.28,0.03,172.4
2021-11-09T07:31:03,42.805,6.029,0.011,-0.026,-0.052,102.0,100.0,99.0,13.4,1505.2,327.4,-0.8,1.8,2470.697,13.28,0.028,157.1
2021-11-09T07:34:03,42.805,6.029,0.028,0.0,-0.002,100.0,101.0,101.0,13.4,1505.2,326.7,-0.8,1.8,2470.747,13.28,0.028,90.0
2021-11-09T07:37:03,42.805,6.029,0.012,-0.015,-0.015,101.0,101.0,100.0,13.4,1505.2,326.8,-0.7,1.8,2470.715,13.28,0.019,141.3
2021-11-09T07:40:03,42.805,6.029,0.002,-0.012,-0.019,102.0,100.0,99.0,13.4,1505.2,326.7,-0.8,1.8,2470.741,13.28,0.012,170.5
2021-11-09T07:43:03,42.805,6.029,0.015,-0.027,-0.03,99.0,102.0,101.0,13.4,1505.2,327.2,-0.8,1.8,2470.719,13.28,0.03,150.9
2021-11-09T07:46:03,42.805,6.029,0.02,-0.01,-0.019,102.0,101.0,100.0,13.3,1505.2,327.3,-0.7,1.8,2470.735,13.28,0.022,116.6
2021-11-09T07:49:03,42.805,6.029,0.017,-0.003,-0.005,101.0,102.0,99.0,13.4,1505.2,325.8,-0.7,1.8,2470.734,13.28,0.017,100.0
2021-11-09T07:52:03,42.805,6.029,0.01,-0.026,-0.004,101.0,101.0,100.0,13.4,1505.2,328.7,-0.7,1.8,2470.734,13.28,0.027,159.0
2021-11-09T07:55:03,42.805,6.029,0.021,-0.003,-0.01,101.0,102.0,100.0,13.3,1505.2,327.3,-0.8,1.8,2470.726,13.28,0.021,98.1
2021-11-09T07:58:03,42.805,6.029,0.007,-0.004,0.0,103.0,100.0,101.0,13.4,1505.2,325.4,-0.8,1.8,2470.753,13.28,0.008,119.7
2021-11-09T08:04:03,42.805,6.029,0.033,-0.017,-0.006,102.0,101.0,101.0,13.3,1505.2,329.5,-0.7,1.8,2470.773,13.28,0.037,117.3
2021-11-09T08:07:03,42.805,6.029,0.014,0.0,0.015,101.0,101.0,100.0,13.4,1505.2,329.7,-0.8,1.8,2470.802,13.28,0.014,90.0
2021-11-09T08:10:03,42.805,6.029,0.014,-0.005,0.002,102.0,101.0,100.0,13.4,1505.2,329.2,-0.7,1.8,2470.788,13.28,0.014,109.6
2021-11-09T08:13:03,42.805,6.029,0.01,-0.022,-0.023,101.0,100.0,100.0,13.3,1505.2,327.9,-0.7,1.8,2470.768,13.28,0.024,155.6
2021-11-09T08:16:03,42.805,6.029,0.001,-0.017,-0.027,101.0,102.0,100.0,13.4,1505.2,330.1,-0.8,1.8,2470.768,13.28,0.017,176.6
2021-11-09T08:19:03,42.805,6.029,0.014,-0.011,0.008,102.0,102.0,101.0,13.4,1505.2,330.0,-0.8,1.8,2470.783,13.28,0.017,128.2
2021-11-09T08:22:03,42.805,6.029,0.018,-0.025,-0.013,102.0,101.0,99.0,13.4,1505.2,329.9,-0.7,1.8,2470.762,13.28,0.03,144.2
2021-11-09T08:25:03,42.805,6.029,0.001,-0.004,-0.022,101.0,100.0,100.0,13.4,1505.2,327.8,-0.7,1.8,2470.732,13.28,0.004,166.0
2021-11-09T08:28:03,42.805,6.029,0.027,-0.011,-0.001,101.0,100.0,102.0,13.4,1505.2,325.7,-0.8,1.8,2470.765,13.28,0.029,112.2
2021-11-09T08:31:03,42.805,6.029,0.022,-0.023,-0.011,101.0,101.0,100.0,13.4,1505.2,328.0,-0.7,1.8,2470.796,13.28,0.031,136.3
2021-11-09T08:34:03,42.805,6.029,0.024,-0.019,0.009,102.0,101.0,100.0,13.3,1505.2,331.0,-0.8,1.9,2470.807,13.28,0.03,128.4
2021-11-09T08:37:03,42.805,6.029,0.025,-0.013,-0.029,103.0,102.0,99.0,13.4,1505.2,328.6,-0.8,1.8,2470.742,13.28,0.028,117.5
2021-11-09T08:40:03,42.805,6.029,0.019,-0.018,-0.013,100.0,100.0,101.0,13.4,1505.2,327.1,-0.7,1.9,2470.791,13.28,0.026,133.5
2021-11-09T08:43:03,42.805,6.029,0.03,-0.022,-0.009,101.0,101.0,100.0,13.3,1505.2,327.5,-0.8,1.8,2470.793,13.28,0.037,126.3
2021-11-09T08:46:03,42.805,6.029,0.03,-0.01,-0.047,100.0,101.0,100.0,13.3,1505.2,327.3,-0.8,1.8,2470.791,13.28,0.031,108.4
2021-11-09T08:49:03,42.805,6.029,0.014,-0.013,-0.035,100.0,101.0,101.0,13.4,1505.2,330.1,-0.8,1.8,2470.817,13.28,0.019,132.9
2021-11-09T08:52:03,42.805,6.029,0.044,-0.007,0.029,100.0,101.0,100.0,13.3,1505.2,326.3,-0.7,1.8,2470.753,13.28,0.044,99.0
2021-11-09T08:55:03,42.805,6.029,0.0,-0.002,0.007,100.0,100.0,100.0,13.4,1505.2,329.4,-0.7,1.8,2470.795,13.28,0.002,180.0
2021-11-09T08:58:03,42.805,6.029,0.031,-0.006,0.016,100.0,101.0,99.0,13.3,1505.2,331.2,-0.8,1.8,2470.802,13.28,0.031,101.0
2021-11-09T09:04:03,42.805,6.029,0.008,-0.005,0.008,101.0,101.0,100.0,13.4,1505.2,327.2,-0.8,1.8,2470.821,13.28,0.009,122.0
2021-11-09T09:07:03,42.805,6.029,0.05,-0.023,-0.001,101.0,101.0,100.0,13.4,1505.2,327.8,-0.7,1.8,2470.837,13.28,0.055,114.7
2021-11-09T09:10:03,42.805,6.029,0.007,-0.002,-0.009,101.0,101.0,102.0,13.3,1505.2,326.2,-0.8,1.8,2470.851,13.28,0.007,105.9
2021-11-09T09:13:03,42.805,6.029,0.014,0.007,-0.01,102.0,100.0,100.0,13.3,1505.2,324.8,-0.8,1.8,2470.822,13.28,0.015,63.4
2021-11-09T09:16:03,42.805,6.029,0.013,-0.01,0.003,103.0,100.0,100.0,13.4,1505.2,326.5,-0.8,1.8,2470.841,13.28,0.016,127.6
2021-11-09T09:19:03,42.805,6.029,0.028,-0.013,-0.028,101.0,100.0,101.0,13.4,1505.2,331.2,-0.7,1.8,2470.825,13.28,0.03,114.9
2021-11-09T09:22:03,42.805,6.029,0.013,0.005,-0.022,102.0,101.0,101.0,13.4,1505.2,328.8,-0.7,1.8,2470.792,13.28,0.013,69.0
2021-11-09T09:25:03,42.805,6.029,0.014,-0.025,-0.034,102.0,101.0,100.0,13.4,1505.2,329.5,-0.8,1.8,2470.834,13.28,0.028,150.7
2021-11-09T09:28:03,42.805,6.029,0.032,-0.012,-0.027,101.0,101.0,100.0,13.3,1505.2,324.8,-0.8,1.8,2470.804,13.28,0.034,110.6
2021-11-09T09:31:03,42.805,6.029,0.026,-0.006,0.008,102.0,102.0,99.0,13.4,1505.2,331.2,-0.7,1.9,2470.815,13.28,0.026,103.0
2021-11-09T09:34:03,42.805,6.029,0.019,-0.012,-0.035,101.0,101.0,100.0,13.4,1505.2,327.5,-0.8,1.8,2470.827,13.28,0.022,122.3
2021-11-09T09:37:03,42.805,6.029,0.029,0.012,-0.005,102.0,100.0,100.0,13.4,1505.2,330.1,-0.8,1.8,2470.822,13.28,0.031,67.5
2021-11-09T09:40:03,42.805,6.029,0.008,-0.017,-0.02,100.0,100.0,101.0,13.4,1505.2,328.7,-0.7,1.8,2470.839,13.28,0.018,154.8
2021-11-09T09:43:03,42.805,6.029,0.027,-0.01,-0.009,102.0,102.0,100.0,13.4,1505.2,324.9,-0.8,1.8,2470.828,13.28,0.028,110.3
2021-11-09T09:46:03,42.805,6.029,0.01,-0.014,0.021,102.0,101.0,100.0,13.3,1505.2,331.1,-0.8,1.8,2470.823,13.28,0.017,144.5
2021-11-09T09:49:03,42.805,6.029,0.028,-0.024,-0.016,102.0,101.0,100.0,13.4,1505.2,331.9,-0.8,1.8,2470.845,13.28,0.036,130.6
2021-11-09T09:52:03,42.805,6.029,0.028,-0.02,-0.029,102.0,101.0,101.0,13.3,1505.2,328.8,-0.7,1.8,2470.861,13.28,0.034,125.5
2021-11-09T09:55:03,42.805,6.029,0.023,-0.015,-0.02,101.0,101.0,102.0,13.4,1505.2,326.3,-0.7,1.8,2470.837,13.28,0.027,123.1